Weather History for Springfield, MO

Change the Weather History Date:

Monday, December 23, 2013

  Actual Average Record
Temperature  
Mean Temperature 20 °F 33 °F  
Max Temperature 24 °F 43 °F 72 °F (1964)
Min Temperature 15 °F 24 °F -16 °F (1989)
Degree Days  
Heating Degree Days 45 32  
Month to date heating degree days 726 676  
Since 1 July heating degree days 1663 1555  
Cooling Degree Days 0 0  
Month to date cooling degree days 0 0  
Year to date cooling degree days 1417 1389  
Moisture  
Dew Point 15 °F    
Average Humidity 80    
Maximum Humidity 88    
Minimum Humidity 71    
Precipitation  
Precipitation 0.01 in 0.09 in 2.86 in (1932)
Month to date precipitation 2.56 2.36  
Year to date precipitation 51.84 44.89  
Snow  
Snow 0.10 in - - ()
Month to date snowfall 13.5  
Since 1 July snowfall 13.5  
Snow Depth T in    
Sea Level Pressure  
Sea Level Pressure 30.52 in    
Wind  
Wind Speed 8 mph (NNW)    
Max Wind Speed 17 mph    
Max Gust Speed 20 mph    
Visibility 9 miles    
Events Snow    
T = Trace of Precipitation, MM = Missing Value Source: NWS Daily Summary

Daily Weather History Graph

Daily Weather History Graph

Search for Another Location

Airport:

Trip Planner

Search our weather history database for the weather conditions in past years. The results will help you decide how hot, cold, wet, or windy it might be!

Date:

Astronomy

Dec. 23, 2013 Rise Set
Actual Time 7:24 AM CST 5:00 PM CST
Civil Twilight 6:55 AM CST 5:30 PM CST
Nautical Twilight 6:22 AM CST 6:02 PM CST
Astronomical Twilight 5:51 AM CST 6:34 PM CST
Moon 11:03 PM CST (12/23) 10:57 AM CST (12/23)
Length of Visible Light 10h 34m
Length of Day
9h 36m
Waning Gibbous, 68% of the Moon is Illuminated
Dec 23
Waning Gibbous
Dec 25
Last Quarter
Jan 1
New
Jan 7
First Quarter
Jan 15
Full

Hourly Weather History & Observations

Time (CST) Temp. Windchill Dew Point Humidity Pressure Visibility Wind Dir Wind Speed Gust Speed Precip Events Conditions
12:06 AM 24.1 °F 11.5 °F 19.0 °F 81% 30.33 in 10.0 mi NNW 15.0 mph - N/A   Overcast
12:52 AM 21.9 °F 10.4 °F 18.0 °F 85% 30.38 in 10.0 mi NNW 11.5 mph - N/A   Overcast
1:52 AM 21.9 °F 12.5 °F 18.0 °F 85% 30.39 in 10.0 mi North 8.1 mph - N/A   Overcast
2:52 AM 21.9 °F 9.2 °F 17.1 °F 82% 30.40 in 10.0 mi NNW 13.8 mph - N/A   Overcast
3:52 AM 21.0 °F 12.4 °F 17.1 °F 85% 30.41 in 10.0 mi NW 6.9 mph - N/A   Overcast
4:52 AM 21.0 °F 9.9 °F 16.0 °F 81% 30.44 in 10.0 mi NNW 10.4 mph - N/A   Overcast
5:52 AM 19.0 °F 11.1 °F 14.0 °F 81% 30.45 in 10.0 mi North 5.8 mph - N/A   Scattered Clouds
6:52 AM 17.1 °F 8.7 °F 12.9 °F 84% 30.49 in 10.0 mi NNW 5.8 mph - N/A   Clear
7:52 AM 17.1 °F 7.6 °F 12.0 °F 81% 30.51 in 9.0 mi North 6.9 mph - N/A   Clear
8:52 AM 19.0 °F 12.3 °F 14.0 °F 81% 30.54 in 9.0 mi North 4.6 mph - N/A   Clear
9:52 AM 19.9 °F 12.1 °F 14.0 °F 78% 30.58 in 9.0 mi WNW 5.8 mph - N/A   Clear
10:52 AM 21.9 °F 17.2 °F 14.0 °F 72% 30.56 in 10.0 mi Variable 3.5 mph - N/A   Clear
11:52 AM 23.0 °F 12.4 °F 16.0 °F 74% 30.54 in 10.0 mi North 10.4 mph - N/A   Mostly Cloudy
12:33 PM 23.0 °F 12.4 °F 16.0 °F 74% 30.50 in 10.0 mi NNW 10.4 mph - N/A   Overcast
12:52 PM 23.0 °F 12.4 °F 16.0 °F 74% 30.54 in 10.0 mi NNW 10.4 mph - N/A   Overcast
1:52 PM 21.9 °F 13.4 °F 15.1 °F 75% 30.55 in 10.0 mi NW 6.9 mph - N/A   Overcast
2:23 PM 21.9 °F 11.0 °F 15.1 °F 75% 30.49 in 10.0 mi NNW 10.4 mph - N/A   Overcast
2:35 PM 21.0 °F 9.9 °F 15.1 °F 78% 30.49 in 5.0 mi NNW 10.4 mph - 0.00 in Snow Light Snow
2:45 PM 21.0 °F 9.3 °F 15.1 °F 78% 30.50 in 2.0 mi NNW 11.5 mph - 0.00 in Snow Light Snow
2:52 PM 21.0 °F 10.6 °F 16.0 °F 81% 30.55 in 2.0 mi NNW 9.2 mph - 0.00 in Snow Light Snow
3:04 PM 21.0 °F 8.6 °F 16.0 °F 81% 30.50 in 1.5 mi NNW 12.7 mph - 0.00 in Snow Snow
3:21 PM 19.9 °F 8.6 °F 16.0 °F 85% 30.51 in 1.5 mi NNW 10.4 mph - 0.00 in Snow Snow
3:35 PM 19.9 °F 10.1 °F 15.1 °F 81% 30.51 in 2.5 mi NW 8.1 mph - 0.01 in Snow Light Snow
3:52 PM 19.9 °F 8.6 °F 15.1 °F 81% 30.57 in 5.0 mi NW 10.4 mph - 0.01 in Snow Light Snow
4:14 PM 19.9 °F 7.9 °F 15.1 °F 81% 30.51 in 8.0 mi NW 11.5 mph - 0.00 in   Overcast
4:52 PM 19.0 °F 7.5 °F 15.1 °F 85% 30.57 in 10.0 mi NNW 10.4 mph - 0.00 in   Overcast
5:52 PM 18.0 °F 11.1 °F 12.9 °F 81% 30.59 in 10.0 mi NW 4.6 mph - N/A   Overcast
6:01 PM 18.0 °F 11.1 °F 12.9 °F 81% 30.52 in 10.0 mi NW 4.6 mph - N/A   Overcast
6:52 PM 16.0 °F 7.4 °F 12.9 °F 88% 30.59 in 10.0 mi NW 5.8 mph - N/A   Partly Cloudy
7:19 PM 16.0 °F 7.4 °F 12.9 °F 88% 30.54 in 10.0 mi NW 5.8 mph - N/A   Mostly Cloudy
7:30 PM 17.1 °F 7.6 °F 14.0 °F 88% 30.54 in 10.0 mi NW 6.9 mph - N/A   Overcast
7:50 PM 17.6 °F 9.3 °F 14.0 °F 86% 30.54 in 10.0 mi NW 5.8 mph - N/A   Overcast
7:52 PM 17.1 °F 7.6 °F 14.0 °F 88% 30.60 in 10.0 mi NW 6.9 mph - N/A   Overcast
8:10 PM 17.1 °F 5.0 °F 12.9 °F 84% 30.54 in 10.0 mi NW 10.4 mph - N/A   Overcast
8:52 PM 17.1 °F 6.6 °F 14.0 °F 88% 30.61 in 10.0 mi NW 8.1 mph - N/A   Overcast
9:52 PM 17.1 °F 5.0 °F 12.9 °F 84% 30.61 in 10.0 mi NW 10.4 mph - N/A   Overcast
10:52 PM 17.1 °F 5.8 °F 14.0 °F 88% 30.61 in 10.0 mi North 9.2 mph - N/A   Overcast
11:28 PM 16.0 °F 6.3 °F 12.0 °F 84% 30.54 in 10.0 mi NW 6.9 mph - N/A   Overcast
11:52 PM 16.0 °F 3.6 °F 10.9 °F 81% 30.60 in 10.0 mi NNW 10.4 mph - N/A   Overcast